RH
16 20 28 31 20 44 37 40 35 14 19 20 14 16 16 20 24 20 18 14 15 19 20 28 28 29 30 31 28 29 34 34 35 35 35 36 42 45 46 47 47 46 50 50
26 35 20 19 21 28 31 34 29 18 21 25 29 41 34 21 34 40 37 23 15 17 20 29 34 31 35 38 30 36 38 38 38 38 36 38 44 47 48 50 49 49 49 53
32 25 20 19 16 22 32 48 32 32 24 22 30 32 35 38 47 48 37 46 25 26 24 22 76 52 52 54 46 42 48 47 42 40 39 40 44 47 49 48 49 49 48 52
22 20 22 21 24 23 32 29 36 41 48 52 53 52 39 39 58 63 51 54 38 32 28 27 46 89 68 71 49 57 52 56 45 43 44 44 48 55 53 55 53 54 51 52
38 21 21 27 35 29 41 31 32 45 59 64 51 64 45 35 44 61 65 56 57 40 40 35 36 89 75 77 78 69 68 64 60 60 52 51 50 56 57 57 55 54 53 51
28 28 38 44 33 37 32 31 35 46 67 84 44 55 47 37 62 50 70 58 59 53 41 38 33 43 87 81 79 74 74 69 69 69 65 56 54 61 64 62 61 60 59 59
36 45 39 36 36 34 39 55 90 96 92 70 51 51 63 65 63 59 67 66 59 61 54 47 42 48 76 76 74 79 76 79 76 79 70 66 59 64 68 67 68 66 65 65
59 76 61 70 64 63 48 72 86 90 78 47 56 71 56 67 54 53 60 68 58 62 60 61 53 52 67 72 73 75 80 84 80 83 82 71 64 70 74 72 70 70 71 69
68 63 58 56 57 58 71 73 75 71 60 54 56 67 62 52 46 46 52 52 64 62 67 63 60 64 65 69 76 79 85 86 86 83 86 84 73 75 76 72 70 72 69 66
70 78 60 54 55 60 68 65 85 76 89 81 74 72 54 63 55 54 54 61 70 60 65 65 63 64 66 74 77 80 82 85 85 85 86 86 85 77 79 76 78 73 71 70
43 65 70 55 77 78 73 87 64 85 73 79 73 68 99 74 58 63 69 72 70 70 65 76 72 69 70 70 83 85 85 86 88 87 86 87 87 86 84 84 81 76 75 75
29 65 74 73 81 67 77 89 90 92 92 72 79 70 80 71 75 67 76 73 65 66 76 77 77 74 74 71 66 81 83 87 87 86 87 87 88 90 90 88 84 83 88 82
35 63 74 80 82 55 72 73 76 82 87 87 80 65 69 57 56 66 65 66 68 70 67 69 74 76 81 82 80 74 82 85 85 87 87 87 88 92 93 92 91 92 93 93
39 43 52 60 53 63 76 71 74 80 90 72 78 71 61 58 60 62 67 67 73 74 73 68 72 85 78 84 84 85 77 84 84 85 87 88 88 94 95 95 95 95 95 97
36 68 48 52 46 45 49 56 69 86 76 81 71 74 70 65 70 71 68 60 53 58 58 65 69 72 86 77 85 85 86 84 86 87 87 86 86 92 95 95 95 94 95 97
34 69 51 64 40 35 40 35 37 56 79 76 73 74 60 58 62 65 62 58 52 51 52 52 56 55 60 84 73 80 87 90 86 89 87 85 85 87 95 94 96 95 96 97
43 60 58 69 34 33 43 40 37 47 50 69 79 66 53 60 57 56 64 65 61 55 53 46 43 46 39 46 65 72 82 86 90 89 87 86 84 87 94 95 96 96 96 95
46 60 72 73 47 70 38 28 35 41 40 46 49 50 53 53 57 62 64 57 67 64 50 40 38 34 25 22 34 49 58 67 84 86 82 83 85 86 88 94 95 94 96 97
35 58 90 85 58 42 33 37 46 55 46 34 44 40 42 71 68 62 36 28 33 37 47 46 39 28 20 18 20 27 31 38 47 67 73 77 82 85 86 91 95 96 96 96
44 60 80 78 82 69 50 32 29 34 47 34 37 75 56 65 80 56 30 31 35 21 22 27 32 28 22 18 21 25 24 27 31 39 49 62 72 79 86 89 91 93 96 97
53 69 85 77 86 56 38 62 37 60 90 70 49 81 89 88 64 50 45 48 50 38 21 22 24 24 23 21 23 26 25 26 32 33 32 41 52 66 79 84 87 87 87 92
90 92 85 83 78 68 49 56 80 74 70 53 64 68 66 64 56 48 51 63 70 66 36 23 28 27 23 24 26 27 26 29 34 32 30 36 38 42 60 79 81 82 83 84
86 80 91 84 59 57 55 69 65 73 80 69 76 72 70 85 71 70 74 73 83 89 38 24 30 29 25 26 30 29 24 30 33 30 29 33 33 31 36 65 76 73 78 80
65 68 73 86 63 70 68 73 66 70 83 91 82 82 82 88 79 81 80 88 92 90 64 38 30 30 28 27 30 30 26 31 33 30 30 34 34 34 32 45 50 65 73 76
64 71 80 79 68 79 60 81 93 78 81 83 82 88 92 92 91 91 92 92 93 94 92 68 55 43 36 29 30 31 31 34 34 32 31 35 36 37 33 34 54 61 71 67
90 94 92 92 88 97 91 93 94 95 92 88 88 88 88 95 96 95 94 95 96 96 94 85 70 67 60 51 42 38 38 39 38 33 33 41 38 39 35 34 33 52 61 63
Wind_Speed
1 7 4 4 2 2 1 2 4 3 3 4 14 16 13 15 16 16 15 16 11 8 7 7 8 5 4 4 7 8 9 10 9 8 9 9 9 10 10 10 13 14 13 14
5 2 4 4 1 1 1 3 5 3 1 3 10 18 16 16 18 16 14 12 12 8 8 9 8 6 3 6 7 8 10 10 9 8 9 10 10 11 10 10 12 13 14 14
3 5 3 2 0 3 1 4 3 4 5 11 10 13 10 6 5 5 11 9 7 6 6 4 8 6 2 5 6 8 8 10 9 11 9 10 11 10 10 10 9 10 14 14
4 2 1 1 1 4 7 3 1 4 5 4 2 7 6 7 7 10 13 12 9 8 7 6 5 3 2 3 5 6 8 9 9 11 11 14 12 13 11 11 11 11 15 16
5 1 1 2 3 4 4 1 2 1 4 5 7 6 3 6 7 12 12 11 7 6 5 5 4 4 1 3 4 5 7 8 10 10 12 11 14 12 11 11 17 16 15 17
4 2 3 3 2 3 2 4 4 3 3 5 6 5 4 6 4 14 10 8 7 6 4 5 4 4 4 4 3 5 6 9 9 9 12 14 15 16 13 14 13 12 12 11
5 2 3 2 3 3 2 4 3 6 5 3 2 5 8 2 2 13 12 8 7 4 5 5 6 6 4 4 4 4 6 9 9 9 11 13 15 17 18 17 12 16 13 12
5 3 0 4 4 3 2 3 4 6 3 4 4 7 1 3 5 6 4 3 4 6 5 6 7 7 5 5 4 5 7 8 9 9 10 12 15 10 12 14 14 13 13 14
5 2 4 4 2 4 5 4 3 6 2 4 4 5 7 7 5 6 6 7 6 5 4 6 6 7 6 5 4 5 6 8 8 9 10 11 13 15 14 18 16 14 16 15
2 7 2 4 2 4 3 2 3 3 5 6 5 4 5 9 12 10 9 8 5 5 5 6 6 7 5 3 4 5 7 9 9 10 10 11 13 15 15 15 18 18 18 19
4 2 5 3 7 3 5 4 2 3 4 5 5 1 1 5 11 12 9 7 5 5 6 5 6 5 4 4 4 5 6 7 8 9 11 12 13 15 15 15 16 17 18 18
2 3 6 2 4 3 4 2 6 5 5 1 3 9 3 4 6 4 5 5 3 5 6 5 5 5 5 5 4 4 6 6 8 9 11 13 14 14 15 15 17 17 18 17
4 4 7 5 3 2 5 7 6 1 2 9 7 4 1 1 4 6 6 6 7 7 6 7 6 5 5 4 4 5 5 7 7 8 11 13 13 14 15 17 16 16 16 17
3 8 13 12 12 1 6 9 12 11 7 9 13 15 9 2 4 4 7 8 7 6 7 7 6 5 5 4 4 4 6 5 7 8 10 12 13 15 15 16 15 14 16 16
7 10 15 18 20 20 21 20 15 17 19 14 12 14 13 7 9 15 16 11 9 8 8 8 8 6 5 5 4 4 4 5 6 8 9 11 13 14 15 16 15 15 15 13
9 9 9 14 17 21 24 22 24 22 19 20 23 28 20 16 8 8 7 6 8 7 7 7 8 7 6 6 4 3 3 4 5 7 9 10 12 14 14 15 15 16 14 12
10 6 9 15 10 12 18 19 21 17 18 14 16 15 12 11 7 9 8 6 9 10 7 7 8 7 6 6 5 3 3 4 4 7 8 9 11 13 14 14 13 15 14 14
12 9 6 9 11 10 4 10 7 10 10 18 14 13 9 9 8 9 8 9 9 8 8 7 7 7 7 6 6 4 5 5 4 5 8 8 10 12 13 14 13 14 15 16
10 9 4 5 8 17 20 8 8 7 7 11 16 10 5 7 9 11 4 1 5 8 5 5 6 7 6 5 5 4 4 4 4 4 7 8 8 10 12 13 14 12 13 13
2 6 6 3 5 6 9 10 8 7 4 14 6 4 2 5 5 6 4 7 7 6 6 5 6 6 6 6 5 4 4 4 5 6 7 8 8 8 10 13 14 12 11 11
3 4 12 12 8 7 13 13 12 5 6 12 9 6 6 6 9 16 14 11 10 10 9 6 6 7 8 6 6 5 4 4 4 5 6 8 9 9 9 11 11 12 11 12
4 5 2 3 4 7 10 9 8 11 7 10 12 14 14 11 14 14 12 11 8 11 10 8 7 8 8 7 6 6 5 0 3 4 6 6 8 8 7 9 10 10 11 13
3 6 7 6 11 22 22 21 19 12 12 15 15 15 14 12 14 13 12 10 7 9 9 6 6 7 7 7 7 6 3 3 2 4 6 6 7 8 9 7 9 9 11 10
4 4 4 9 2 16 21 20 20 13 7 7 14 16 12 13 14 13 11 7 6 6 7 6 6 7 7 7 7 7 3 3 2 3 5 5 6 7 8 8 7 8 9 10
4 7 13 10 13 22 12 22 18 20 10 11 11 11 13 15 15 10 9 8 6 5 5 5 6 5 6 5 7 7 5 3 2 2 4 5 5 6 6 6 8 8 10 13
5 8 8 13 18 16 19 23 21 15 15 13 12 16 14 13 10 8 8 6 5 5 4 5 5 5 4 2 5 5 5 4 3 1 2 4 4 4 5 5 4 12 15 20
Wind_Direction
96 249 241 68 4 93 337 205 263 76 96 278 239 250 245 193 213 217 224 225 210 199 181 173 184 204 249 312 336 345 340 337 337 335 326 320 312 304 297 293 291 290 289 289
216 286 73 92 91 80 334 307 273 114 84 294 293 279 261 231 219 210 216 221 201 186 182 186 208 213 265 322 349 346 335 329 336 328 318 304 296 292 289 284 278 278 279 279
352 72 112 308 297 309 162 287 286 295 307 247 289 259 213 201 269 217 199 214 204 203 220 215 156 215 271 318 358 327 323 325 331 319 306 296 292 287 292 294 298 294 292 289
54 106 288 342 74 325 272 67 41 309 324 284 326 294 196 166 193 205 198 195 202 206 212 230 212 161 239 325 321 313 321 328 320 311 300 296 295 295 297 300 297 292 287 282
78 173 293 259 26 333 35 328 318 286 263 314 177 242 207 163 197 180 181 180 187 200 216 249 258 141 259 290 291 310 312 315 302 295 294 296 297 299 304 299 294 288 285 280
67 70 30 54 77 43 94 261 235 233 241 240 134 244 241 174 196 161 170 166 170 190 224 239 254 249 209 220 256 298 305 293 288 291 293 294 296 299 296 293 292 289 285 280
149 106 93 352 217 155 234 260 233 205 195 280 100 213 289 136 109 154 157 163 166 197 238 254 253 258 256 255 274 285 285 286 291 289 293 297 297 296 289 288 283 282 282 277
326 217 158 4 355 359 115 316 309 300 315 32 158 232 197 95 122 112 115 149 209 230 228 243 245 259 259 262 271 282 281 286 289 293 294 298 297 289 285 282 282 277 273 271
322 170 127 41 15 322 128 201 14 295 166 252 237 243 188 167 198 201 199 208 221 216 227 247 250 254 263 259 263 279 287 283 283 294 297 290 288 288 287 285 279 275 270 268
86 282 190 119 191 69 323 57 196 200 269 251 199 274 256 180 192 189 196 202 211 220 237 247 249 251 248 237 263 272 277 279 293 294 289 289 289 290 288 285 278 273 270 267
192 253 130 174 195 191 144 192 202 314 261 289 301 218 324 189 180 183 185 182 190 242 252 244 252 250 240 240 233 262 273 285 291 289 293 295 292 291 290 285 281 278 278 272
152 296 274 304 81 31 344 287 184 244 159 221 293 272 50 18 38 51 153 165 214 266 256 255 250 242 234 244 265 274 283 284 281 290 296 295 291 294 294 292 289 286 278 273
167 215 292 188 145 165 229 187 213 42 297 225 265 253 113 100 239 235 246 254 275 278 258 254 241 228 216 222 248 273 279 284 293 298 298 296 300 303 301 299 298 294 288 276
202 249 237 266 306 91 211 201 205 201 230 263 229 266 263 252 272 261 226 236 279 267 257 250 244 214 216 205 235 258 284 291 298 303 297 301 307 309 306 305 304 308 303 294
232 255 255 265 275 280 273 260 210 209 225 249 274 274 270 268 291 295 290 282 281 266 246 236 240 221 188 206 226 245 270 289 293 295 301 307 309 310 312 312 319 324 312 308
232 266 299 278 269 262 267 266 256 228 229 250 259 275 286 296 304 285 299 277 267 267 257 239 236 228 208 190 223 233 263 271 290 294 301 311 315 319 320 322 328 326 317 333
240 256 282 278 276 305 279 257 247 240 232 223 242 251 275 305 291 303 313 292 275 277 270 236 235 228 218 191 200 230 261 269 275 296 301 314 321 321 325 326 331 331 334 343
254 240 254 284 295 254 355 310 287 275 246 206 240 255 276 286 305 299 284 277 280 282 264 234 231 227 216 192 186 201 250 272 260 284 308 318 323 324 327 332 338 348 351 352
240 254 264 267 263 293 305 31 1 3 332 237 231 248 292 305 303 277 190 116 297 295 261 245 233 230 224 203 190 214 258 289 312 338 319 324 327 328 335 343 341 347 350 351
140 248 253 245 272 279 63 19 341 307 285 353 148 93 328 346 294 352 10 344 328 287 258 236 231 224 226 215 195 213 264 297 342 349 336 332 332 332 341 344 344 340 352 353
270 224 224 243 252 276 21 7 325 281 31 350 6 345 304 284 298 309 309 314 312 305 289 240 236 224 226 222 204 224 253 287 344 341 350 346 337 342 347 344 341 346 351 4
297 319 221 247 258 262 20 316 336 327 285 297 299 301 302 288 299 298 307 296 303 296 293 248 238 226 227 215 217 227 244 83 312 335 359 3 349 349 355 346 342 356 0 9
12 342 317 307 315 325 328 314 305 282 262 278 276 279 281 281 295 300 301 295 294 289 294 270 236 237 215 207 219 235 209 190 297 333 4 6 11 4 355 355 0 10 12 16
318 70 267 310 336 305 314 306 297 292 285 300 295 286 271 285 289 293 293 285 278 277 289 287 256 242 234 199 211 231 179 175 261 342 4 6 14 21 20 2 12 25 18 22
317 301 326 289 311 316 320 327 314 298 298 296 287 268 272 279 276 281 280 279 278 275 268 272 264 252 248 198 201 207 189 187 203 349 3 9 16 16 26 57 22 18 15 32
0 335 319 322 320 315 313 319 319 311 295 284 275 277 273 265 257 274 272 280 283 271 257 248 252 251 244 203 193 181 177 184 194 192 19 16 14 16 20 20 58 62 38 33